| time (UTC) | temp C | wind direction | speed KPH | gust KPH | rain 1hr cm | rain 24hr cm | rain mn cm | humidity % | barometer mb |
| 20260510015745 | 27 | 110 | 0.0 | 11.3 | 0.00 | 0.00 | 0.00 | 69 | 1005.9 |
| 20260510012744 | 28 | 110 | 0.0 | 9.7 | 0.00 | 0.00 | 0.00 | 63 | 1005.7 |
| 20260510005744 | 30 | 110 | 0.0 | 14.5 | 0.00 | 0.00 | 0.00 | 57 | 1005.4 |
| 20260510002743 | 31 | 109 | 1.6 | 16.1 | 0.00 | 0.00 | 0.00 | 48 | 1005.2 |
| 20260509232742 | 33 | 101 | 3.2 | 11.3 | 0.00 | 0.00 | 0.00 | 45 | 1004.9 |
| 20260509225741 | 33 | 107 | 0.0 | 12.9 | 0.00 | 0.00 | 0.00 | 44 | 1004.8 |
| 20260509222740 | 32 | 105 | 0.0 | 22.5 | 0.00 | 0.00 | 0.00 | 44 | 1004.8 |
| 20260509215739 | 34 | 79 | 0.0 | 9.7 | 0.00 | 0.00 | 0.00 | 43 | 1005.0 |
| 20260509212738 | 35 | 77 | 0.0 | 11.3 | 0.00 | 0.00 | 0.00 | 43 | 1005.3 |
| 20260509205738 | 33 | 72 | 0.0 | 19.3 | 0.00 | 0.00 | 0.00 | 45 | 1005.5 |
| 20260509202737 | 32 | 91 | 0.0 | 25.7 | 0.00 | 0.00 | 0.00 | 48 | 1005.9 |
| 20260509185735 | 32 | 321 | 0.0 | 20.9 | 0.00 | 0.00 | 0.00 | 52 | 1006.7 |
| 20260509182734 | 32 | 175 | 6.4 | 12.9 | 0.00 | 0.00 | 0.00 | 56 | 1007.1 |
| 20260509175733 | 30 | 169 | 0.0 | 9.7 | 0.00 | 0.00 | 0.00 | 63 | 1007.3 |
| 20260509172732 | 30 | 169 | 0.0 | 11.3 | 0.00 | 0.00 | 0.00 | 69 | 1008.0 |
| 20260509165732 | 28 | 169 | 0.0 | 19.3 | 0.00 | 0.00 | 0.00 | 74 | 1007.9 |
| 20260509162731 | 26 | 163 | 11.3 | 19.3 | 0.00 | 0.00 | 0.00 | 80 | 1008.1 |
| 20260509155730 | 25 | 156 | 11.3 | 19.3 | 0.00 | 0.00 | 0.00 | 87 | 1008.1 |
| 20260509152729 | 24 | 150 | 12.9 | 19.3 | 0.00 | 0.00 | 0.00 | 89 | 1007.8 |
| 20260509145728 | 24 | 140 | 0.0 | 22.5 | 0.00 | 0.00 | 0.00 | 90 | 1007.6 |
| 20260509142727 | 25 | 128 | 3.2 | 12.9 | 0.00 | 0.00 | 0.00 | 91 | 1007.4 |
| 20260509135727 | 23 | 127 | 9.7 | 11.3 | 0.00 | 0.00 | 0.00 | 96 | 1006.8 |
| 20260509125755 | 22 | 128 | 0.0 | 1.6 | 0.00 | 0.00 | 0.00 | 96 | 1007.8 |
| 20260509122755 | 22 | 128 | 0.0 | 0.0 | 0.00 | 0.00 | 0.00 | 96 | 1007.2 |
| 20260509115754 | 22 | 128 | 0.0 | 0.0 | 0.00 | 0.00 | 0.00 | 96 | 1007.4 |
| 20260509112753 | 22 | 128 | 0.0 | 9.7 | 0.00 | 0.00 | 0.00 | 96 | 1008.2 |
| 20260509105752 | 22 | 128 | 0.0 | 0.0 | 0.00 | 0.00 | 0.00 | 96 | 1008.8 |
| 20260509102751 | 22 | 128 | 0.0 | 0.0 | 0.00 | 0.00 | 0.00 | 95 | 1008.8 |
| 20260509095751 | 22 | 128 | 0.0 | 0.0 | 0.00 | 0.00 | 0.00 | 95 | 1008.0 |
| 20260509092750 | 22 | 128 | 0.0 | 0.0 | 0.00 | 0.00 | 0.00 | 95 | 1007.1 |
| 20260509085749 | 22 | 128 | 0.0 | 0.0 | 0.00 | 0.00 | 0.00 | 95 | 1007.3 |
| 20260509082749 | 22 | 128 | 0.0 | 0.0 | 0.00 | 0.00 | 0.00 | 94 | 1007.5 |
| 20260509075748 | 22 | 128 | 0.0 | 0.0 | 0.00 | 0.00 | 0.00 | 94 | 1007.7 |
| 20260509072747 | 22 | 128 | 0.0 | 0.0 | 0.00 | 0.00 | 0.00 | 93 | 1007.9 |
| 20260509065746 | 22 | 128 | 0.0 | 0.0 | 0.00 | 0.00 | 0.00 | 93 | 1008.0 |
| 20260509062745 | 22 | 128 | 0.0 | 16.1 | 0.00 | 0.00 | 0.00 | 93 | 1007.9 |
| 20260509055745 | 22 | 125 | 1.6 | 12.9 | 0.00 | 0.00 | 0.00 | 93 | 1007.3 |
| 20260509052744 | 22 | 119 | 3.2 | 11.3 | 0.00 | 0.00 | 0.00 | 93 | 1006.7 |
| 20260509045743 | 22 | 119 | 0.0 | 9.7 | 0.00 | 0.00 | 0.00 | 92 | 1006.5 |
| 20260509042742 | 22 | 119 | 0.0 | 3.2 | 0.00 | 0.00 | 0.00 | 91 | 1006.8 |
| 20260509035742 | 22 | 119 | 0.0 | 8.0 | 0.00 | 0.00 | 0.00 | 89 | 1007.1 |
| 20260509032741 | 23 | 119 | 1.6 | 9.7 | 0.00 | 0.00 | 0.00 | 89 | 1006.7 |
| 20260509025740 | 23 | 119 | 0.0 | 9.7 | 0.00 | 0.00 | 0.00 | 87 | 1006.7 |
| 20260509022739 | 23 | 119 | 0.0 | 8.0 | 0.00 | 0.00 | 0.00 | 86 | 1006.1 |